sat.trackr.live / text

‹ back to catalog

STARLINK-36741

NORAD 67727 · 2026-026G

PAYLOAD ACTIVE UNKNOWN

§ Identity

Operator
Country
US
Launch date
2026-02-11
Launch site
AFWTR
Launch vehicle
Mass (kg)
RCS (m²)

Purposes: comms

External: N2YO · Heavens-Above · Gunter

§ Orbital elements

Epoch: 2026-05-25T02:19:17.962752Z

Period
93.91 min
Inclination
97.2833°
Eccentricity
0.0001362
Mean motion
15.33454869 rev/d
Perigee alt
464.6 km
Apogee alt
466.4 km
Semi-major
6,843.7 km
B*
4.2743e-4
RAAN
198.5898°
Arg perigee
97.6063°
Mean anomaly
262.5335°
Rev number
1,583

§ Raw data

STARLINK-367411 67727U 26026G   26145.09673568  .00013754  00000+0  42743-3 0  99992 67727  97.2833 198.5898 0001362  97.6063 262.5335 15.33454869 15835

JSON: /api/v1/satellites/67727 · /tle

For live sub-satellite position, see the globe view (requires WebGL).

§ Visibility from observer

Set your observer location to see the next 7 days of passes ≥ 10°. The values pass through the URL so the page stays shareable.

No JS? Fill the form by hand. The geolocation button needs JavaScript.